Weather Roundup
Issued by NWS Chicago, IL

Home | Current Version | Previous Version | Text Only | Print | Product List | Glossary Off
Versions: 1 2 3 4 5 6 7 8 9 10 11 12 13 14 15 16 17 18 19 20 21 22 23 24 25 26 27 28 29 30 31 32 33 34 35 36 37 38 39 40 41 42 43 44 45 46 47 48 49 50

000
NZUS59 KLOT 040410
HRRLOT

CHICAGO AREA WEATHER ROUNDUP
NATIONAL WEATHER SERVICE CHICAGO/ROMEOVILLE IL
1000 PM CST TUE MAR 03 2015

NOTE: "FAIR" INDICATES FEW OR NO CLOUDS BELOW 12,000 FEET WITH NO
SIGNIFICANT WEATHER AND/OR OBSTRUCTIONS TO VISIBILITY.

* THESE STATIONS ARE NOT UNDER NWS QUALITY CONTROL. THEY ALSO MAY NOT
  REPORT WEATHER SUCH AS PRECIPITATION OR FOG.

ILZ005-006-012>014-019>023-040500-
NORTHEAST ILLINOIS

CITY           SKY/WX    TMP DP  RH WIND       PRES   REMARKS
OHARE          CLOUDY    31  23  72 W10       29.85R WCI  22
MIDWAY         CLOUDY    34  25  69 W8        29.87R WCI  27
AURORA         CLOUDY    32  26  78 W10       29.88R WCI  24
LANSING*       CLOUDY    33  28  79 W6        29.87R WCI  28
JOLIET*        CLOUDY    32  26  78 W7        29.89R WCI  26
WAUKEGAN       MOCLDY    30  24  78 SW3       29.83S
DUPAGE AIRPORT CLOUDY    31  23  72 W10       29.85S WCI  22
WHEELING       MOCLDY    31  25  78 W9        29.86R WCI  23
KANKAKEE*      CLOUDY    33  29  87 W14G20    29.88S WCI  23
MORRIS*        CLOUDY    32  28  88 W12       29.88R WCI  23
LEWIS AIRPORT* CLOUDY    32  26  78 NW13      29.87R WCI  22
NORTHERLY IS     N/A     33  25  72 W9          N/A  WCI  25
$$

WIZ051-052-058>065-066-070>072-040500-
SOUTHEAST WISCONSIN

CITY           SKY/WX    TMP DP  RH WIND       PRES   REMARKS
MILWAUKEE      CLOUDY    30  22  72 SW8       29.82R WCI  22
KENOSHA*       CLOUDY    30  24  78 W9        29.83R WCI  22
RACINE*        CLOUDY    30  22  72 SW6       29.84R WCI  24
BURLINGTON     CLOUDY    27  23  83 SW7       29.83R WCI  20
WAUKESHA       CLOUDY    28  23  80 W12       29.82R WCI  18
WEST BEND      CLOUDY    30  21  69 W7        29.79R WCI  23
$$

INZ001>003-010>013-019-020-040500-
NORTHWEST INDIANA

CITY           SKY/WX    TMP DP  RH WIND       PRES   REMARKS
GARY*          CLOUDY    35  24  64 W13G22    29.87R WCI  26
MICHIGAN CITY* NOT AVBL
RENSSELAER*    NOT AVBL
VALPARAISO     CLOUDY    33  28  81 W13       29.84R WCI  24
$$

LMZ740>746-040500-
SOUTHERN LAKE MICHIGAN

STATION/POSITION TIME  SKY/WX   TEMP WIND        PRES    VSBY
                                AIR  DIR/SP/G
                 (UTC)          (F)  (DEG/KT/KT) (MB)    (MI)
HARRISON CRIB    0400            33  280/ 16/ 20   N/A
BURNHAM HARBOR   0400            33  250/  4/ 14   N/A
CALUMET HARBOR   0400            33  260/  7/ 16 1010.0R
BURNS HARBOR     NOT AVBL
MICHIGAN CITY    0400            33  250/ 12/ 14   N/A
$$

ABBREVIATIONS USED IN REMARKS
   TC - TEMPERATURE IN CELSIUS
  WCI - WIND CHILL INDEX
   HX - HEAT INDEX
  VSB - VISIBILITY
$$



USA.gov is the U.S. government's official web portal to all federal, state and local government web resources and services.